Find Hai Yang 1-04

NORAD ID: 45721 Int'l Des: 2020-036 Owner: GYZ/CASC Country: CN operational
LEOCIRCULARRETROGRADESSO

Aktuelle Ansicht

3D-Globus wird geladen...

Über Hai Yang 1-04

Beschreibung wird geladen...

Nächste Überflüge

Passes for default location (London). Set your location on the main map for personalized predictions.

Höhenverlauf

Loading altitude history...

Zweizeiliger Elementsatz

1 45721U 20036A 26150.18255221 .00000270 00000-0 11167-3 0 9998
2 45721 98.4550 92.2542 0002310 174.5314 185.5897 14.34166841312396
Epoch: 30. Mai 2026 • Age: 4 hours

Aktueller Status

Höhe 792.7 km
Geschwindigkeit 7.46 km/s
Subsatellitenpunkt -41.60°S, 114.42°W
Startdatum 10. Juni 2020
Alter 5.9 years
Typ other

Technische Details

Klassifizierung Payload
Masse 442.00 kg
Trockenmasse 429.00 kg
Gesamtmasse 442.00 kg
Länge 1.40 m
Durchmesser 1.00 m
Spannweite 7.50 m
Form Box + 2 Pan
Hersteller DFHZ
Bus-Typ CAST-968
Phasenstatus In Orbit
Besitzer/Staat GYZ/CASC/CN

Most Searched